MyTimes logo

TIMES

Webb Imagery

9/02/2008
Channel Challenge
550m Swim / 2.0km Run

(Click on competitor name to view personalised results)

Name
Race #
Category
Time
(h:mm:ss)
Avg Speed
km/hr
OAll
Place
Cat
Place
COOPER BRETT#53Senior Male0:11:07 13.8 11
RHODES Jamie#119Senior Male0:11:07 13.8 22
SCHUSTER Brent#176Senior Male0:11:18 13.5 33
CAMPBELL Brad#236Senior Male0:12:16 12.5 44
SMITH RYAN#615Junior Male0:12:16 12.5 51
TAYLOR Owen#122Senior Male0:12:33 12.2 65
WRIGHT BENJAMIN#49Senior Male0:12:37 12.1 76
HUNTER Hamish#131Senior Male0:12:40 12.1 87
VELLIN MARC#34Senior Male0:12:41 12.1 98
ROWE Mark#209Senior Male0:12:43 12 109
GUILLE TIM#12Senior Male0:13:09 11.6 1110
BUTLER JAMES#613Junior Male0:13:11 11.6 122
REID Penny#452Senior Female0:13:14 11.6 131
FLIESNER ROB#65340-49 Male0:13:16 11.5 141
PLANT LUKE#603Junior Male0:13:17 11.5 153
SCHUSTER PETER#663Male 50+0:13:19 11.5 161
PHILLIPS TYLER#622Junior Male0:13:20 11.5 174
CARNIE JARED#610Junior Male0:13:23 11.4 185
CHAPMAN Naish#181Senior Male0:13:27 11.4 1911
WACHTER AUREL#64940-49 Male0:13:29 11.3 202
ROWSWELL Jason#132Senior Male0:13:31 11.3 2112
BREDIN VICTOR#606Junior Male0:13:35 11.3 226
DALLINGER Andrew#170Senior Male0:13:36 11.2 2313
EVANS BRAD#65Senior Male0:13:40 11.2 2414
TRIBE HARLEY#609Junior Male0:13:42 11.2 257
KERR Lewis#732Junior Male0:13:44 11.1 268
MCGRATH STEPHANIE#396Senior Female0:13:48 11.1 272
HAWORTH Mark#751Male 50+0:13:48 11.1 282
NEAL Dennis#212Senior Male0:13:51 11 2915
DESSENT TIGER#62440-49 Male0:13:54 11 303
ROCK Anthony#160Senior Male0:13:56 11 3116
ZDANOWICZ Rob#71640-49 Male0:13:59 10.9 324
YUSKO BILL#676Male 50+0:14:00 10.9 333
PARKINSON Malcolm#118Senior Male0:14:01 10.9 3417
CROFT Greg#74340-49 Male0:14:04 10.9 355
CROUGH CHRIS#19Senior Male0:14:12 10.8 3618
NELSON Mark#206Senior Male0:14:15 10.7 3719
CROWE SARAH#328Junior Female0:14:18 10.7 381
WILSON MARK#64Senior Male0:14:19 10.7 3920
POLIZZI Alex#117Senior Male0:14:22 10.6 4021
BARNES Trevor#221Senior Male0:14:23 10.6 4122
LOUGHNAN DANIEL#611Junior Male0:14:25 10.6 429
SMITH LIAM#616Junior Male0:14:27 10.6 4310
ESSING Wayne#77440-49 Male0:14:28 10.6 446
GOWAN Mike#251Senior Male0:14:29 10.6 4523
GALBRAITH DANA#62640-49 Male0:14:34 10.5 467
MOATE Peter#168Senior Male0:14:36 10.5 4724
OLDEN Joshua#111Senior Male0:14:37 10.5 4825
DE CARIO Nicholas#112Senior Male0:14:39 10.4 4926
KERDEL SAM#607Junior Male0:14:41 10.4 5011
KEADY Arran#130Senior Male0:14:42 10.4 5127
TUOMEY Hannah#431Senior Female0:14:45 10.4 523
CAPLE Alex#135Senior Male0:14:46 10.4 5328
CORBETT JIM#75Senior Male0:14:50 10.3 5429
WATTS Jacqui#424Senior Female0:14:51 10.3 554
JUDD Alex#713Junior Male0:14:51 10.3 5612
LEENAERTS RYAN#608Junior Male0:14:51 10.3 5713
TALBOT ARCHER#61Senior Male0:14:54 10.3 5830
JOHNSON DANIEL#20Senior Male0:14:55 10.3 5931
CSAKVARI Jarrod#256Senior Male0:14:58 10.2 6032
STEWART Alastair#712Junior Male0:15:02 10.2 6114
ZERVAAS STEPHANIE#405Senior Female0:15:02 10.2 625
GROENEVELD SANDER#6Senior Male0:15:03 10.2 6333
COGHLAN Derek#230Senior Male0:15:03 10.2 6434
PETERS DARYL#92Senior Male0:15:05 10.1 6535
HARRISON HAMISH#618Junior Male0:15:05 10.1 6615
VIRTUE Geoff#10540-49 Male0:15:05 10.1 678
BOOMSMA Mathew#167Senior Male0:15:08 10.1 6836
HUTCHINSON WARWICK#63240-49 Male0:15:08 10.1 699
THOMAS Andrew#232Senior Male0:15:13 10.1 7037
MATHEWS JACK#91Senior Male0:15:14 10 7138
ARTER Nicholas#101Senior Male0:15:15 10 7239
STURT Rodney#153Senior Male0:15:19 10 7340
CLINTON Bradley#142Senior Male0:15:21 10 7441
RATCLIFFE JEREMY#614Junior Male0:15:21 10 7516
ARTER Andrew#100Senior Male0:15:22 10 7642
CLARKE Joshua#134Senior Male0:15:23 9.9 7743
MOORE Hayden#110Senior Male0:15:24 9.9 7844
BUTT CHLOE#332Junior Female0:15:25 9.9 792
LYNCH Daniel#193Senior Male0:15:26 9.9 8045
DRISCOLL BEN#59Senior Male0:15:27 9.9 8146
CHISHOLM Andy#175Senior Male0:15:28 9.9 8247
MINICHIELLO Ben#165Senior Male0:15:29 9.9 8348
DALLINGER CHRIS#72Senior Male0:15:29 9.9 8449
CARTER Lachlan#109Senior Male0:15:30 9.9 8550
BIBBY ANTHONY#54Senior Male0:15:30 9.9 8651
BOURKE MICHAEL#78Senior Male0:15:34 9.8 8752
LOCKWOOD Peter#246Senior Male0:15:35 9.8 8853
PARKINSON Samuel#205Senior Male0:15:36 9.8 8954
O'CONNELL Sarah#451Senior Female0:15:36 9.8 906
SELLER NICHOLAS#604Junior Male0:15:36 9.8 9117
WILKINS Shaun#243Senior Male0:15:37 9.8 9255
GRIDLEY NATHAN#23Senior Male0:15:38 9.8 9356
CROWE Suzie#466Junior Female0:15:38 9.8 943
WALDER MITCH#617Junior Male0:15:39 9.8 9518
CHRISTISON Dave#166Senior Male0:15:42 9.7 9657
HOMER IVAN#64640-49 Male0:15:42 9.7 9710
HEWETT Noel#69340-49 Male0:15:43 9.7 9811
DAVIE KRYSTAL#331Junior Female0:15:44 9.7 994
CROW Andrew#169Senior Male0:15:45 9.7 10058
WATSON RUSSELL#229Senior Male0:15:46 9.7 10159
CANN LARA#350Senior Female0:15:46 9.7 1027
KELLY CHRIS#22Senior Male0:15:47 9.7 10360
RUMBERG Michael#115Senior Male0:15:48 9.7 10461
IRVING Stewart#77140-49 Male0:15:49 9.7 10512
CLARK John#219Senior Male0:15:56 9.6 10662
HEIL JACKSON#26Senior Male0:15:57 9.6 10763
IRVING Nathaniel#772Junior Male0:15:59 9.6 10819
WILLIAMSON David#217Senior Male0:16:03 9.5 10964
BOURKE Chris#191Senior Male0:16:04 9.5 11065
CANDOIT Evan#121Senior Male0:16:04 9.5 11166
GOSPER ELIZABETH#30740-49 Female0:16:04 9.5 1121
HAYMES Brayden#158Senior Male0:16:05 9.5 11367
WHEELER Matthew#97Senior Male0:16:09 9.5 11468
DOCHERTY Josh#759Junior Male0:16:09 9.5 11520
WARD DANIEL#76Senior Male0:16:14 9.4 11669
TASCONE JOHN#620Junior Male0:16:14 9.4 11721
MONTGOMERY MICHAEL#69Senior Male0:16:15 9.4 11870
PETERSON MARNIE#329Junior Female0:16:15 9.4 1195
MAIER David#72640-49 Male0:16:15 9.4 12013
BOND MARCUS#70Senior Male0:16:16 9.4 12171
PHELPS Troy#76840-49 Male0:16:17 9.4 12214
STINEAR Tim#75840-49 Male0:16:18 9.4 12315
WILDES JOHN#62740-49 Male0:16:18 9.4 12416
MENZEL Niclas#189Senior Male0:16:19 9.4 12572
BOYD Jesse#183Senior Male0:16:19 9.4 12673
MARTIN Brian#76040-49 Male0:16:20 9.4 12717
LEVERSHA DAVID#669Male 50+0:16:21 9.4 1284
TURNER Peter#74040-49 Male0:16:21 9.4 12918
COATS CALLUM#42Senior Male0:16:22 9.3 13074
ROBINSON Tom#113Senior Male0:16:22 9.3 13175
BEAUMONT Tyron#703Junior Male0:16:23 9.3 13222
HARVEY WILL#96Senior Male0:16:24 9.3 13376
NOLTON MANDY#372Senior Female0:16:24 9.3 1348
BEHRSIN John#735Male 50+0:16:25 9.3 1355
WEINER MARC#63840-49 Male0:16:26 9.3 13619
NICHOLSON Steven#159Senior Male0:16:27 9.3 13777
SAUNDERS PRUE#408Senior Female0:16:29 9.3 1389
TYLER MIKE#681Male 50+0:16:29 9.3 1396
DURKIN Sean#125Senior Male0:16:32 9.3 14078
EISEN Nat#162Senior Male0:16:32 9.3 14179
JUDD Gary#714Male 50+0:16:32 9.3 1427
TESTER Ben#737Junior Male0:16:33 9.2 14323
KIRKHAM BELINDA#30140-49 Female0:16:34 9.2 1442
HEIJDEN Emily#483Junior Female0:16:34 9.2 1456
CROWE Damien#744Male 50+0:16:34 9.2 1468
MORGAN Natalie#494Senior Female0:16:35 9.2 14710
MC DONALD Hugh#226Senior Male0:16:36 9.2 14880
ALDERSON ALLAN#757Male 50+0:16:36 9.2 1499
DURKIN Martin#730Male 50+0:16:36 9.2 15010
CLARKSON Anna#441Senior Female0:16:36 9.2 15111
COLLINS JOHN#74Senior Male0:16:40 9.2 15281
LITTLE Stuart#210Senior Male0:16:41 9.2 15382
DAVIE JASMINE#330Junior Female0:16:41 9.2 1547
CHAPMAN ROB#89Senior Male0:16:42 9.2 15583
RINALDI Simon#139Senior Male0:16:43 9.2 15684
RYAN Darren#155Senior Male0:16:44 9.1 15785
WOOLSEY Dave#203Senior Male0:16:44 9.1 15886
DAVIE ANGELA#31240-49 Female0:16:45 9.1 1593
SHAW Stephen#126Senior Male0:16:46 9.1 16087
THOMPSON DAVID#65240-49 Male0:16:46 9.1 16120
VANDERVALK Shane#177Senior Male0:16:47 9.1 16288
TAYLOR Matilda#438Senior Female0:16:47 9.1 16312
ASHBY Rob#202Senior Male0:16:48 9.1 16489
O'HALLORAN James#147Senior Male0:16:50 9.1 16590
BORN Daniel#722Junior Male0:16:50 9.1 16624
FOX David#254Senior Male0:16:52 9.1 16791
DISTON Steve#252Senior Male0:16:52 9.1 16892
LEWIS JESSICA#373Senior Female0:16:52 9.1 16913
VALENA Rex#719Male 50+0:16:53 9.1 17011
NUTTALL Travers#150Senior Male0:16:54 9.1 17193
MANTEIT Michael#721Junior Male0:16:54 9.1 17225
MARSHALL Luke#123Senior Male0:16:56 9 17394
IGLESIAS PHILIP#43Senior Male0:16:56 9 17495
HADLEY Alister#773Junior Male0:16:56 9 17526
BROWN STEWART#13Senior Male0:17:00 9 17696
PRYOR Brendan#235Senior Male0:17:02 9 17797
HORAN SIMON#95Senior Male0:17:03 9 17898
MAHON Debbi#420Senior Female0:17:03 9 17914
PRATT MARK#28Senior Male0:17:04 9 18099
O'HALLORAN Claire#443Senior Female0:17:04 9 18115
BOND Justin#195Senior Male0:17:05 9 182100
THOMAS MARK#21Senior Male0:17:06 8.9 183101
RINGROSE PAUL#679Male 50+0:17:06 8.9 18412
SHALDERS Mark#179Senior Male0:17:07 8.9 185102
SUNDERLAND Peter#698Male 50+0:17:07 8.9 18613
CAMPBELL PAUL#14Senior Male0:17:08 8.9 187103
VERNON Zak#685Junior Male0:17:08 8.9 18827
O'CONNELL ARNALISS#384Senior Female0:17:08 8.9 18916
ILSLEY ROSS#63740-49 Male0:17:09 8.9 19021
ROBINSON JAMIE#612Junior Male0:17:09 8.9 19128
WEBB Brendan#151Senior Male0:17:10 8.9 192104
BALDING RACHEL#388Senior Female0:17:10 8.9 19317
DE KORT LUKE#57Senior Male0:17:11 8.9 194105
BRAY CHRIS#25Senior Male0:17:11 8.9 195106
DAFF Geoff#687Male 50+0:17:13 8.9 19614
WOOD Anthony#133Senior Male0:17:14 8.9 197107
BRAY ANTHONY#18Senior Male0:17:17 8.9 198108
KISLER JENNY#369Senior Female0:17:17 8.9 19918
BURKE Richard#178Senior Male0:17:18 8.8 200109
KAY ELIZABETH#357Senior Female0:17:19 8.8 20119
ESNOVF Paul#200Senior Male0:17:19 8.8 202110
MC PHIE Stuart#223Senior Male0:17:21 8.8 203111
ANDREWS CATHERINE#366Senior Female0:17:22 8.8 20420
NICHOLSON James#157Senior Male0:17:22 8.8 205112
PRYOR Anthony#198Senior Male0:17:22 8.8 206113
O'SHEA Kelly#474Senior Female0:17:24 8.8 20721
GARGAN Bridget#492Senior Female0:17:25 8.8 20822
DRISCOLL MELANIE#358Senior Female0:17:25 8.8 20923
STEINICKE Angus#136Senior Male0:17:26 8.8 210114
MOUNTER Brent#114Senior Male0:17:27 8.8 211115
CARGILL Sam#213Senior Male0:17:27 8.8 212116
LEWIS ALEXANDER#44Senior Male0:17:27 8.8 213117
STONE NICK#32Senior Male0:17:28 8.8 214118
COLE Nicholas#75340-49 Male0:17:28 8.8 21522
POULTON Andrew#144Senior Male0:17:30 8.7 216119
WHYTE Sean#164Senior Male0:17:31 8.7 217120
DWYER Ryan#755Junior Male0:17:31 8.7 21829
MULLER RODNEY#47Senior Male0:17:32 8.7 219121
CROCKETT DARREN#11Senior Male0:17:33 8.7 220122
DUNDAS Emma#456Senior Female0:17:34 8.7 22124
HAYNE RODNEY#45Senior Male0:17:34 8.7 222123
ROWE Michael#108Senior Male0:17:34 8.7 223124
WADERTON Brett#197Senior Male0:17:35 8.7 224125
O'DONOHUE Jacob#702Junior Male0:17:35 8.7 22530
LENNE Heath#140Senior Male0:17:36 8.7 226126
SMITH James#756Junior Male0:17:36 8.7 22731
WINSTANLEY BEN#621Junior Male0:17:37 8.7 22832
SHEEDY ANTHONY#64040-49 Male0:17:39 8.7 22923
BEATSON JESS#362Senior Female0:17:41 8.7 23025
BARNARD Rebecca#489Senior Female0:17:41 8.7 23126
HOPEWELL JEFFERSON#55Senior Male0:17:42 8.6 232127
AMEY BEN#36Senior Male0:17:42 8.6 233128
ROBINSON Peter#255Senior Male0:17:43 8.6 234129
HAMMOND KERRY#398Senior Female0:17:43 8.6 23527
EARL Lachlan#214Senior Male0:17:44 8.6 236130
GAZZARD KATE#395Senior Female0:17:44 8.6 23728
CHAPMAN TARRYN#327Junior Female0:17:44 8.6 2388
PLANT Cassie#429Junior Female0:17:45 8.6 2399
GODING Lindsay#141Senior Male0:17:47 8.6 240131
WINTERTON Kevin#765Male 50+0:17:47 8.6 24115
LEDDIN Peter#77640-49 Male0:17:47 8.6 24224
TENNANT Matthew#231Senior Male0:17:50 8.6 243132
RANSOM Aaron#196Senior Male0:17:50 8.6 244133
STERN Kate#496Senior Female0:17:52 8.6 24529
MACLAREN Lynne#47540-49 Female0:17:52 8.6 2464
CAMPBELL Courtney#244Senior Male0:17:53 8.6 247134
TENNANT Stephanie#481Senior Female0:17:54 8.5 24830
EASTHAM LUKE#62Senior Male0:17:56 8.5 249135
BOURKE Lucy#422Senior Female0:17:58 8.5 25031
SAUNDERS Allan#734Male 50+0:17:58 8.5 25116
WOMERSLEY TIMOTHY#33Senior Male0:17:59 8.5 252136
SMITH Ryan#208Senior Male0:18:00 8.5 253137
ROBERTS MARK#64540-49 Male0:18:00 8.5 25425
OCKWELL KRIS#17Senior Male0:18:02 8.5 255138
LAW Struan#729Junior Male0:18:03 8.5 25633
REDDIE LUKE#16Senior Male0:18:04 8.5 257139
CARGILL Chad#216Senior Male0:18:04 8.5 258140
MANTEIT Mark#72040-49 Male0:18:04 8.5 25926
DOCHERTY Daniel#192Senior Male0:18:05 8.5 260141
GRUMMISCH Mark#188Senior Female0:18:07 8.4 26132
SYMONS Tim#154Senior Male0:18:08 8.4 262142
TAMBURO ALYSHA#411Senior Female0:18:09 8.4 26333
NICHOLSON Peter#763Male 50+0:18:09 8.4 26417
BRADFORD PETER#38Senior Male0:18:11 8.4 265143
LEA Michael#194Senior Male0:18:12 8.4 266144
FOSTIN Bianca#486Senior Female0:18:13 8.4 26734
RANSOM CHELSEA#355Senior Female0:18:13 8.4 26835
URBANO Steven#239Senior Male0:18:13 8.4 269145
MATHEWS ROBERT#682Male 50+0:18:13 8.4 27018
MANNING John#161Senior Male0:18:15 8.4 271146
BRIC John#224Senior Male0:18:18 8.4 272147
SHELLY Luke#211Senior Male0:18:18 8.4 273148
GOOEY Megan#467Senior Female0:18:19 8.4 27436
YOUNG ANDREW#31Senior Male0:18:20 8.3 275149
ADAMS Simon#70840-49 Male0:18:20 8.3 27627
LEVERSHA LYN#317Female 50+0:18:21 8.3 2771
CARBERY Owen#128Senior Male0:18:21 8.3 278150
LITTLE Nathan#233Senior Male0:18:24 8.3 279151
BEVAN Allison#423Senior Female0:18:24 8.3 28037
HAMMOND SCOTT#73Senior Male0:18:26 8.3 281152
MANNING Simon#69240-49 Male0:18:26 8.3 28228
STRACHAN Donovan#228Senior Male0:18:27 8.3 283153
LEECH MARK#52Senior Male0:18:28 8.3 284154
VAN DIJK Heleen#448Senior Female0:18:28 8.3 28538
O'SHANNESSY Peter#73340-49 Male0:18:28 8.3 28629
WATSON MATTHEW#40Senior Male0:18:29 8.3 287155
EMERY MICHAEL#660Male 50+0:18:30 8.3 28819
BILSTON David#143Senior Male0:18:31 8.3 289156
PETERS MATTHEW#93Senior Male0:18:32 8.3 290157
WILLIAMS Damien#237Senior Male0:18:32 8.3 291158
O'HALLORAN Edward#146Senior Male0:18:33 8.2 292159
SULLIVAN Gabriella#477Senior Female0:18:33 8.2 29339
ROGERS ANIKA#336Junior Female0:18:34 8.2 29410
WINTERTON Mark#250Senior Male0:18:34 8.2 295160
COX Bill#69440-49 Male0:18:34 8.2 29630
STELZER Hermann#107Male 50+0:18:34 8.2 29720
O'CONNELL MICHAEL#56Senior Male0:18:35 8.2 298161
CARSON Anthony#174Senior Male0:18:35 8.2 299162
JORDON-HILL LISA#407Senior Female0:18:36 8.2 30040
GARRETT David#201Senior Male0:18:36 8.2 301163
FLEISNER PAUL#670Male 50+0:18:36 8.2 30221
SUTHERLAND Micahael#249Senior Male0:18:37 8.2 303164
WINTLE Paul#750Junior Male0:18:37 8.2 30434
HUNT GREG#62840-49 Male0:18:38 8.2 30531
ANDERS Tully#704Junior Male0:18:38 8.2 30635
M'LARTY Cynthia#444Senior Female0:18:40 8.2 30741
LEA TRAVOR#671Male 50+0:18:41 8.2 30822
HAYES Frank#738Male 50+0:18:42 8.2 30923
MORLEY Adrian#220Senior Male0:18:44 8.2 310165
GARETTO Clinton#104Senior Male0:18:45 8.2 311166
CRAIG Mikeh#240Senior Male0:18:45 8.2 312167
SZEITLI TOM#63940-49 Male0:18:46 8.2 31332
ELLIS MICHAEL#661Male 50+0:18:48 8.1 31424
MOSELEY Tessa#470Senior Female0:18:49 8.1 31542
JONES PENNY#367Senior Female0:18:49 8.1 31643
CREAN PETER#658Male 50+0:18:49 8.1 31725
ALDER Sarah#433Senior Female0:18:50 8.1 31844
DIEDRICH GLENN#50Senior Male0:18:52 8.1 319168
FRANCIS Tony#75440-49 Male0:18:54 8.1 32033
SCOTT Beth#490Junior Female0:18:56 8.1 32111
CLIFF Stephen#156Senior Male0:18:56 8.1 322169
LINDSAY Mark#227Senior Male0:18:57 8.1 323170
FERGIE Bruce#747Male 50+0:18:57 8.1 32426
SHAW AARON#60Senior Male0:18:58 8.1 325171
HAYNE WENDY#365Senior Female0:18:59 8.1 32645
HENDY DALE#46Senior Male0:19:00 8.1 327172
GRIDLEY SIMON#10Senior Male0:19:00 8.1 328173
CARR SHERILENE#30540-49 Female0:19:01 8 3295
JENKINS Madelene#499Senior Female0:19:02 8 33046
OVER Travis#204Senior Male0:19:03 8 331174
SKIDMORE Peter#736Male 50+0:19:03 8 33227
BEATTIE Kasey#427Senior Female0:19:04 8 33347
CHAPMAN WAYNE#94Senior Male0:19:06 8 334175
ANDREWS MICHAEL#67Senior Male0:19:08 8 335176
GILLIES Bill#727Male 50+0:19:08 8 33628
WOODHOUSE Nigel#173Senior Male0:19:09 8 337177
BAILEY PAUL#39Senior Male0:19:11 8 338178
CAMERON Jane#43740-49 Female0:19:11 8 3396
WISKEN James#207Senior Male0:19:11 8 340179
MC COY Tony#73140-49 Male0:19:13 8 34134
HOPKINS Barry#690Male 50+0:19:14 8 34229
TRAN Ignace#145Senior Male0:19:15 7.9 343180
TROLLOPE Brett#152Senior Male0:19:16 7.9 344181
O'CONNOR ANDREW#65040-49 Male0:19:16 7.9 34535
ZWICKY Angela#450Senior Female0:19:16 7.9 34648
O'DONOHUE Mark#70140-49 Male0:19:18 7.9 34736
CARR MICHELLE#397Senior Female0:19:21 7.9 34849
HAIN Jacqui#428Senior Female0:19:25 7.9 34950
FOSTER Andrew#752Male 50+0:19:25 7.9 35030
ADAMS Abigail#435Senior Female0:19:26 7.9 35151
FITZGERALD AMY 34#2Senior Female 0:19:27 7.9 35252
MAHONEY Simon#137Senior Male0:19:29 7.9 353182
HOUSTON MOON#315Female 50+0:19:30 7.8 3542
LENZ Christophe#103Male 50+0:19:30 7.8 35531
JONES Mark#190Senior Male0:19:31 7.8 356183
SCHLITZ JACQUI#379Senior Female0:19:31 7.8 35753
ALDER Kurt#138Senior Male0:19:32 7.8 358184
CHANDLER Mark#98Senior Male0:19:35 7.8 359185
SMITH Paul#705Male 50+0:19:35 7.8 36032
CARTER Dean#691Male 50+0:19:36 7.8 36133
WILLIAMS IAN#64240-49 Male0:19:36 7.8 36237
DIXON AMANDA#364Senior Female0:19:38 7.8 36354
GOULD SUE#318Female 50+0:19:38 7.8 3643
ROBINS Daniel#172Senior Male0:19:39 7.8 365186
POSSELT JAYNE#30340-49 Female0:19:39 7.8 3667
RISELEY KERRYN#382Senior Female0:19:41 7.8 36755
THORNHILL ADAM#68Senior Male0:19:44 7.8 368187
COMMERFORD Peter#728Male 50+0:19:46 7.7 36934
BEAUMONT Ashley#215Senior Male0:19:49 7.7 370188
FERGIE Fleur#468Junior Female0:19:51 7.7 37112
ADAMS MURRAY#675Male 50+0:19:52 7.7 37235
DWYER Paul#184Senior Male0:19:54 7.7 373189
DUNNE JEROME#71Senior Male0:19:55 7.7 374190
MORRISON Kerry#498Female 50+0:19:56 7.7 3754
O'HARA Cameron#129Senior Male0:19:57 7.7 376191
BOON Andrea#463Senior Female0:19:57 7.7 37756
CAPLE David#706Male 50+0:20:00 7.6 37836
MCRAE SHANNON#381Senior Female0:20:01 7.6 37957
DALLIINGER Brian#697Male 50+0:20:02 7.6 38037
WALLER Ben#218Senior Male0:20:03 7.6 381192
GOLDSBURY Amber#442Senior Female0:20:03 7.6 38258
LEA Edwina#457Junior Female0:20:03 7.6 38313
HUMPHRYS BRONWYN#333Junior Female0:20:04 7.6 38414
DODDS Janine#491Senior Female0:20:04 7.6 38559
FITZGERALD RICHARD#659Male 50+0:20:04 7.6 38638
HAMMOND MAURICE#63Senior Male0:20:05 7.6 387193
HUNG Pui-Shan#487Senior Female0:20:05 7.6 38860
ROBINSON MURRAY#64440-49 Male0:20:06 7.6 38938
WALDER CHARLES#64840-49 Male0:20:07 7.6 39039
STAMMERS Paul#182Senior Male0:20:10 7.6 391194
HOLLIS Hannah#430Junior Female0:20:11 7.6 39215
RENWICK Nicole#493Senior Female0:20:12 7.6 39361
PRESTON HEATH#41Senior Male0:20:13 7.6 394195
ZIMMERMAN KIRRILY#380Senior Female0:20:13 7.6 39562
DIXON Michael#77040-49 Male0:20:16 7.5 39640
MALIOS Todd#74640-49 Male0:20:19 7.5 39741
WATSON ELIZABETH#375Senior Female0:20:22 7.5 39863
SHELTON TOBY#15Senior Male0:20:23 7.5 399196
CHAPERON JOELLE#385Senior Female0:20:23 7.5 40064
GLENN IAN#674Male 50+0:20:23 7.5 40139
LOUGHRAN RHYS#29Senior Male0:20:24 7.5 402197
BOWTELL KATHRYN#353Senior Female0:20:25 7.5 40365
HOOPER MICK#662Male 50+0:20:26 7.5 40440
MONHHOUSE Sandy#418Senior Female0:20:27 7.5 40566
WILLIAMS ANNE-MARIE#386Senior Female0:20:28 7.5 40667
RUSSO DANNY#66Senior Male0:20:29 7.5 407198
CHASTON Pete#695Male 50+0:20:30 7.5 40841
FISHER Simon#234Senior Male0:20:31 7.5 409199
LEA Georgia#458Senior Female0:20:31 7.5 41068
SZE ITCI Justin#484Senior Female0:20:34 7.4 41169
HUDSON David#71040-49 Male0:20:34 7.4 41242
BORN Tim#72340-49 Male0:20:35 7.4 41343
O'HALLORAN Samual#148Senior Male0:20:36 7.4 414200
SUMMERFIELD Wayne#70940-49 Male0:20:37 7.4 41544
DAVIE Stephen#766Male 50+0:20:37 7.4 41642
CAIN GREG#684Male 50+0:20:39 7.4 41743
NEWTON JESSICA#415Senior Female0:20:40 7.4 41870
FULLER NAOMI#413Senior Female0:20:41 7.4 41971
WILLIAMS Peter#68640-49 Male0:20:43 7.4 42045
REDMOND SEAN#58Senior Male0:20:45 7.4 421201
BENT STEPHANIE#378Senior Female0:20:45 7.4 42272
CUTHBERTSON Peter#180Senior Male0:20:46 7.4 423202
LACEY Fleur#462Senior Female0:20:48 7.4 42473
QUINN Kevin#764Male 50+0:20:48 7.4 42544
RIDDELL Amanda#461Senior Female0:20:49 7.3 42674
KEOGH Peter#77540-49 Male0:20:50 7.3 42746
WHELAN DAVID#51Senior Male0:20:59 7.3 428203
MC MEIKIN Sarah#455Junior Female0:21:02 7.3 42916
EVANS KYM#392Senior Female0:21:04 7.3 43075
POLLARD Kate#447Senior Female0:21:05 7.3 43176
REDDIE MICHAEL#664Male 50+0:21:06 7.3 43245
FLETCHER AIMEE#360Senior Female0:21:08 7.2 43377
GARDNER MEGAN#361Senior Female0:21:08 7.2 43478
HUMBY JANE#363Senior Female0:21:09 7.2 43579
HEIJDEN Daniel#762Junior Male0:21:09 7.2 43636
DE CARIO Pier#689Male 50+0:21:10 7.2 43746
NORRIS Mark#71140-49 Male0:21:12 7.2 43847
HIBBLE Jenny#47640-49 Female0:21:13 7.2 4398
KNIGGE Peter#678Male 50+0:21:18 7.2 44047
GREENER Simon#124Senior Male0:21:19 7.2 441204
ANDERSON Keegan#186Senior Male0:21:19 7.2 442205
SPITERI MAVERICK#63440-49 Male0:21:19 7.2 44348
WARD FRANK#672Male 50+0:21:19 7.2 44448
MUIR Anthony#74540-49 Male0:21:20 7.2 44549
MOTYER STACEY#383Senior Female0:21:21 7.2 44680
ROSS KEVIN#64340-49 Male0:21:22 7.2 44750
LONSDALE SARAH#335Junior Female0:21:23 7.2 44817
MANISCALCHI TANIA#374Senior Female0:21:25 7.1 44981
ASBURY Kyle#247Senior Male0:21:28 7.1 450206
ADKINS SUSAN#30240-49 Female0:21:29 7.1 4519
GARGAN Timothy#245Senior Male0:21:33 7.1 452207
SAY Nick#127Senior Male0:21:36 7.1 453208
COMMERFORD Michael#187Senior Male0:21:38 7.1 454209
LOCKWOOD Andrea#497Senior Female0:21:40 7.1 45582
KNELL Matt#120Senior Male0:21:42 7.1 456210
ROGERS Felicity#426Senior Female0:21:45 7 45783
SMITH SARAH#30640-49 Female0:21:52 7 45810
DWYER Deanne#454Senior Female0:21:54 7 45984
GOODE THOMAS#683Male 50+0:21:54 7 46049
PETERS SARAH#389Senior Female0:21:56 7 46185
ESNOUF JOHN#680Male 50+0:21:56 7 46250
TIPPING MELANIE#352Senior Female0:21:59 7 46386
READ Jeff#70040-49 Male0:22:06 6.9 46451
KEWMING ROBYN#321Female 50+0:22:18 6.9 4655
DUDLEY GRAEME#63540-49 Male0:22:20 6.9 46652
DWYER Danny#76940-49 Male0:22:21 6.8 46753
TIPPING SALLY#371Senior Female0:22:25 6.8 46887
VAN RHYN Stephanie#478Female 50+0:22:31 6.8 4696
BREMNER JAMES#48Senior Male0:22:33 6.8 470211
ALLEN KATE#354Senior Female0:22:33 6.8 47188
ANDERSON LISA#31040-49 Female0:22:37 6.8 47211
ROWBOTTOM Leanne#446Senior Female0:22:38 6.8 47389
LYNCH Nick#242Senior Male0:22:41 6.7 474212
MEAGHER Kerryn#453Senior Female0:22:42 6.7 47590
SMITH John#724Senior Male0:22:44 6.7 476213
BARTLETT DOUG#673Male 50+0:22:44 6.7 47751
JONAS PAM#322Female 50+0:22:44 6.7 4787
BLACKWELL NICOLE#412Senior Female0:22:47 6.7 47991
LLOYD GREG#88Senior Male0:22:54 6.7 480214
LODGE Paul#74140-49 Male0:22:58 6.7 48154
OLDHAM Josie#482Senior Female0:23:01 6.6 48292
WING REBECCA#376Senior Female0:23:02 6.6 48393
HEAD Simon#72540-49 Male0:23:14 6.6 48455
LANE Hayden#222Senior Male0:23:14 6.6 485215
CLEMENT Sylvian#163Senior Male0:23:19 6.6 486216
EGERTON Chris#73940-49 Male0:23:20 6.6 48756
HERBERT MICHAEL#62540-49 Male0:23:21 6.6 48857
AULD DAVID#64140-49 Male0:23:29 6.5 48958
WHITTAKER SUSAN#368Senior Female0:23:33 6.5 49094
STANFIELD MONICA#370Senior Female0:23:34 6.5 49195
MOULD ANNIE#399Senior Female0:23:37 6.5 49296
HAYNE SUE#316Female 50+0:23:41 6.5 4938
LICCIARDO Amanda#460Senior Female0:23:43 6.5 49497
CAMENZULI Maria#41940-49 Female0:23:44 6.4 49512
PAYNE Kevin#74940-49 Male0:23:54 6.4 49659
FITZJOHN Amanda#459Senior Female0:24:03 6.4 49798
COULSON Ian#688Male 50+0:24:04 6.4 49852
POLLARD Brett#106Senior Male0:24:07 6.3 499217
CAMPBELL RHEA#390Senior Female0:24:09 6.3 50099
BATES KATHRYN 34#4Senior Female 0:24:10:00 6.3 501100
INNES-WARDELL DONNA#30940-49 Female0:24:11 6.3 50213
KEAN DONNA#393Senior Female0:24:12 6.3 503101
WALKER Christine#425Female 50+0:24:19 6.3 5049
ONLEY Amanda#471Senior Female0:24:22 6.3 505102
WINDER Debbie#44940-49 Female0:24:25 6.3 50614
REEK George#696Male 50+0:24:27 6.3 50753
HAYES ANNE#394Senior Female0:24:30 6.2 508103
QUINN TONY#64740-49 Male0:24:32 6.2 50960
BROWN Glenn#241Senior Male0:24:38 6.2 510218
TOBIAS SEAN#62940-49 Male0:24:40 6.2 51161
CHAMBERS RON#665Male 50+0:24:40 6.2 51254
TENNANT Helen#479Female 50+0:24:51 6.2 51310
YOUNG BRUCE#668Male 50+0:24:51 6.2 51455
KENNAN LAURA#356Senior Female0:25:01 6.1 515104
NEWNHAM GAYLE SUSA#31340-49 Female0:25:02 6.1 51615
WRAY Andrew#74240-49 Male0:25:04 6.1 51762
MOORE MARTIN#65640-49 Male0:25:05 6.1 51863
YOUNG DEBORAH#402Senior Female0:25:13 6.1 519105
LAWLER TONI#30440-49 Female0:25:26 6 52016
ANTHONY Lisa#46940-49 Female0:25:34 6 52117
PAPAC Emil#171Senior Male0:25:39 6 522219
ANTHONY MICHAEL#65540-49 Male0:25:45 5.9 52364
REASON Geoffrey#717Male 50+0:25:53 5.9 52456
PATERSON Debra#488Senior Female0:25:54 5.9 525106
DEVINE ALLISON#319Female 50+0:26:08 5.9 52611
FREEMAN Steve#71840-49 Male0:26:09 5.9 52765
COLE Shelley#436Senior Female0:26:43 5.7 528107
DUDLEY GEOFF#63640-49 Male0:26:46 5.7 52966
KEMP Andrea#44040-49 Female0:27:05 5.6 53018
SPICE Nigel#102Senior Male0:27:13 5.6 531220
SEMMENS BRIAN#666Male 50+0:27:18 5.6 53257
TAYLOR Matthew#253Senior Male0:27:21 5.6 533221
WHITE Louise#485Senior Female0:27:28 5.6 534108
FLOWER Melanie#464Senior Female0:28:00 5.5 535109
LEVINGS RHONA#351Senior Female0:28:01 5.5 536110
SEMMENS CRAIG#63140-49 Male0:28:07 5.4 53767
BUTLER Brendan#707Male 50+0:28:08 5.4 53858
DUNNE Louise#465Senior Female0:28:14 5.4 539111
ONLEY Megan#473Senior Female0:28:31 5.4 540112
HOLMES Myra#472Female 50+0:28:56 5.3 54112
PERILLO PAUL#65440-49 Male0:29:47 5.1 54268
CAPON Julia#50040-49 Female0:30:20 5 54319
KONTOGOURIS EARLENE#323Female 50+0:30:20 5 54413
BOND VIVIENNE#30840-49 Female0:30:21 5 54520
HORROCKS Mark#715Male 50+0:30:48 5 54659
BOSWORTH Susan#43940-49 Female0:31:44 4.8 54721
DRYSDALE Wayne#699Senior Male0:32:24 4.7 548222
BEWLEY RIKKI#324Female 50+0:34:54 4.4 54914
LUNNEY MARIE#320Female 50+0:39:31 3.9 55015
BANNISTER DIANA#325Female 50+0:41:29 3.7 55116